This is the latest recevied weather packets stored in our database for station/object W8CEN. If no packets are shown the sender has not sent any weather packets the latest 1 day(s).
| Time | Temp. | Humidity | Pressure | Rain* | Wind** | Luminosity | Snow |
|---|---|---|---|---|---|---|---|
| 1777994666 | 16.67° C | 71% | 986.1 hPa | 0 mm | 1.34 m/s, 234° | 84 W/m² | - |
| 1777994365 | 16.67° C | 71% | 986.1 hPa | 0 mm | 2.24 m/s, 246° | 82 W/m² | - |
| 1777994062 | 16.67° C | 70% | 985.9 hPa | 0 mm | 2.24 m/s, 301° | 73 W/m² | - |
| 1777993759 | 17.22° C | 71% | 985.9 hPa | 0 mm | 1.79 m/s, 307° | 97 W/m² | - |
| 1777993456 | 17.22° C | 69% | 985.5 hPa | 0 mm | 3.13 m/s, 221° | 145 W/m² | - |
| 1777993156 | 17.22° C | 69% | 985.5 hPa | 0 mm | 2.68 m/s, 253° | 180 W/m² | - |
| 1777992854 | 17.22° C | 70% | 985.6 hPa | 0 mm | 1.79 m/s, 294° | 195 W/m² | - |
| 1777992552 | 17.22° C | 70% | 985.6 hPa | 0 mm | 1.34 m/s, 287° | 120 W/m² | - |
| 1777992250 | 17.78° C | 69% | 985.2 hPa | 0 mm | 1.79 m/s, 239° | 139 W/m² | - |
| 1777991947 | 17.78° C | 69% | 984.9 hPa | 0 mm | 1.79 m/s, 231° | 225 W/m² | - |
| 1777991644 | 17.78° C | 68% | 984.7 hPa | 0 mm | 2.68 m/s, 237° | 300 W/m² | - |
| 1777991341 | 17.78° C | 67% | 984.7 hPa | 0 mm | 1.79 m/s, 220° | 284 W/m² | - |
| 1777991039 | 17.78° C | 68% | 984.4 hPa | 0 mm | 1.79 m/s, 236° | 355 W/m² | - |
| 1777990735 | 17.78° C | 68% | 984.3 hPa | 0 mm | 1.79 m/s, 230° | 402 W/m² | - |
| 1777990433 | 17.78° C | 68% | 984.2 hPa | 0 mm | 1.34 m/s, 229° | 396 W/m² | - |
| 1777990129 | 17.78° C | 69% | 984.4 hPa | 0 mm | 1.79 m/s, 232° | 340 W/m² | - |
| 1777989826 | 17.78° C | 69% | 984.5 hPa | 0 mm | 3.13 m/s, 257° | 292 W/m² | - |
| 1777989523 | 17.78° C | 69% | 984.5 hPa | 0 mm | 2.24 m/s, 245° | 416 W/m² | - |
| 1777989219 | 17.22° C | 70% | 984.2 hPa | 0 mm | 1.79 m/s, 237° | 390 W/m² | - |
| 1777988915 | 17.78° C | 70% | 984.3 hPa | 0 mm | 2.24 m/s, 251° | 365 W/m² | - |
| 1777988612 | 17.22° C | 71% | 984.4 hPa | 0 mm | 0.89 m/s, 240° | 426 W/m² | - |
| 1777988309 | 17.22° C | 70% | 984.6 hPa | 0 mm | 1.79 m/s, 249° | 335 W/m² | - |
| 1777988006 | 17.22° C | 71% | 984.6 hPa | 0 mm | 2.24 m/s, 243° | 379 W/m² | - |
| 1777987701 | 16.67° C | 71% | 984.3 hPa | 0 mm | 2.24 m/s, 227° | 331 W/m² | - |
| 1777987399 | 16.67° C | 71% | 984.3 hPa | 0 mm | 4.92 m/s, 245° | 308 W/m² | - |
* Rain latest hour (hover to see other rain measurements)
** Current wind speed in m/s (hover to see current wind gust speed)